When you browse on this site, cookies collect data to enhance your experience and personalize the content and advertising you see.
Visit our Privacy Policy to learn more. By continuing to use the site, you agree to this use of cookies and data.
  • în România
  • Lista ţărilor
  • Pe 7 zile
  • Temperatura apei
  • Meteo pe hartă
  • Widget-uri
  • user-avatar
    Intrare

    Meteo pe oră la Saint-Herblain

    Astăzi, 24 August, Sâmbătă

    Timp Temperatura Precipitaţii Vânt Presiune Umiditate
    00:00 +20°C° 0 mm 3 m/s 760 mmHg 54%
    01:00 +19°C° 0 mm 3 m/s 760 mmHg 54%
    02:00 +19°C° 0 mm 3 m/s 760 mmHg 55%
    03:00 +19°C° 0 mm 3 m/s 760 mmHg 55%
    04:00 +19°C° 0 mm 3 m/s 759 mmHg 55%
    05:00 +19°C° 0 mm 3 m/s 759 mmHg 55%
    06:00 +19°C° 0 mm 3 m/s 759 mmHg 53%
    07:00 +21°C° 0 mm 2 m/s 759 mmHg 47%
    08:00 +25°C° 0 mm 2 m/s 760 mmHg 41%
    09:00 +27°C° 0 mm 2 m/s 760 mmHg 35%
    10:00 +29°C° 0 mm 2 m/s 759 mmHg 32%
    11:00 +31°C° 0 mm 2 m/s 759 mmHg 29%
    12:00 +34°C° 0 mm 2 m/s 759 mmHg 28%
    13:00 +34°C° 0 mm 3 m/s 759 mmHg 29%
    14:00 +34°C° 0 mm 4 m/s 759 mmHg 30%
    15:00 +35°C° 0 mm 4 m/s 759 mmHg 31%
    16:00 +33°C° 0 mm 4 m/s 758 mmHg 37%
    17:00 +30°C° 0 mm 4 m/s 758 mmHg 43%
    18:00 +28°C° 0 mm 3 m/s 758 mmHg 49%
    19:00 +26°C° 0 mm 3 m/s 758 mmHg 55%
    20:00 +24°C° 0 mm 2 m/s 758 mmHg 61%
    21:00 +21°C° 0 mm 2 m/s 759 mmHg 67%
    22:00 +20°C° 0 mm 2 m/s 759 mmHg 69%
    23:00 +19°C° 0 mm 2 m/s 759 mmHg 71%

    Mâine, 25 August, Duminică

    Timp Temperatura Precipitaţii Vânt Presiune Umiditate
    00:00 +19°C° 0 mm 1 m/s 759 mmHg 73%
    01:00 +19°C° 0 mm 1 m/s 759 mmHg 75%
    02:00 +19°C° 0 mm 1 m/s 759 mmHg 77%
    03:00 +18°C° 0 mm 1 m/s 759 mmHg 79%
    04:00 +18°C° 0 mm 1 m/s 759 mmHg 82%
    05:00 +18°C° 0 mm 1 m/s 759 mmHg 85%
    06:00 +18°C° 0 mm 1 m/s 759 mmHg 88%
    07:00 +20°C° 0 mm 1 m/s 759 mmHg 76%
    08:00 +23°C° 0 mm 1 m/s 760 mmHg 64%
    09:00 +25°C° 0 mm 2 m/s 760 mmHg 53%
    10:00 +27°C° 0 mm 2 m/s 760 mmHg 46%
    11:00 +29°C° 0 mm 2 m/s 760 mmHg 40%
    12:00 +31°C° 0 mm 2 m/s 760 mmHg 33%
    13:00 +31°C° 0 mm 2 m/s 760 mmHg 32%
    14:00 +32°C° 0 mm 2 m/s 760 mmHg 31%
    15:00 +33°C° 0 mm 3 m/s 759 mmHg 30%
    16:00 +30°C° 0 mm 3 m/s 759 mmHg 36%
    17:00 +29°C° 0 mm 3 m/s 759 mmHg 42%
    18:00 +27°C° 0 mm 3 m/s 759 mmHg 48%
    19:00 +25°C° 0 mm 3 m/s 759 mmHg 56%
    20:00 +22°C° 0 mm 3 m/s 760 mmHg 65%
    21:00 +20°C° 0 mm 3 m/s 760 mmHg 73%
    22:00 +20°C° 0 mm 3 m/s 760 mmHg 76%
    23:00 +19°C° 0 mm 3 m/s 760 mmHg 78%

    Poimâine, 26 August, Luni

    Timp Temperatura Precipitaţii Vânt Presiune Umiditate
    00:00 +18°C° 0 mm 3 m/s 760 mmHg 81%
    01:00 +18°C° 0 mm 3 m/s 759 mmHg 83%
    02:00 +18°C° 0 mm 3 m/s 759 mmHg 85%
    03:00 +18°C° 0 mm 3 m/s 759 mmHg 87%
    04:00 +18°C° 0 mm 3 m/s 759 mmHg 85%
    05:00 +18°C° 0 mm 3 m/s 759 mmHg 82%
    06:00 +19°C° 0 mm 3 m/s 759 mmHg 79%
    07:00 +22°C° 0 mm 3 m/s 759 mmHg 67%
    08:00 +26°C° 0 mm 3 m/s 759 mmHg 55%
    09:00 +29°C° 0 mm 2 m/s 759 mmHg 44%
    10:00 +31°C° 0 mm 2 m/s 759 mmHg 38%
    11:00 +34°C° 0 mm 2 m/s 758 mmHg 32%
    12:00 +36°C° 0 mm 2 m/s 758 mmHg 26%
    13:00 +37°C° 0 mm 3 m/s 758 mmHg 25%
    14:00 +37°C° 0 mm 3 m/s 758 mmHg 24%
    15:00 +37°C° 0 mm 3 m/s 757 mmHg 23%
    16:00 +35°C° 0 mm 3 m/s 757 mmHg 29%
    17:00 +33°C° 0 mm 3 m/s 757 mmHg 35%
    18:00 +30°C° 0 mm 3 m/s 757 mmHg 41%
    19:00 +28°C° 0 mm 3 m/s 757 mmHg 49%
    20:00 +26°C° 0 mm 3 m/s 757 mmHg 58%
    21:00 +22°C° 0 mm 3 m/s 758 mmHg 67%
    22:00 +22°C° 0 mm 3 m/s 758 mmHg 67%
    23:00 +22°C° 0 mm 3 m/s 757 mmHg 67%

    27 August, Marţi

    Timp Temperatura Precipitaţii Vânt Presiune Umiditate
    00:00 +21°C° 0 mm 2 m/s 757 mmHg 68%
    01:00 +21°C° 0 mm 2 m/s 757 mmHg 64%
    02:00 +21°C° 0 mm 2 m/s 757 mmHg 61%
    03:00 +21°C° 0 mm 2 m/s 757 mmHg 58%
    04:00 +20°C° 0 mm 2 m/s 757 mmHg 57%
    05:00 +21°C° 0 mm 1 m/s 757 mmHg 57%
    06:00 +21°C° 0 mm 1 m/s 757 mmHg 56%
    07:00 +24°C° 0 mm 1 m/s 757 mmHg 49%
    08:00 +27°C° 0 mm 1 m/s 757 mmHg 41%
    09:00 +29°C° 0 mm 1 m/s 757 mmHg 34%
    10:00 +31°C° 0 mm 1 m/s 757 mmHg 31%
    11:00 +33°C° 0 mm 1 m/s 757 mmHg 27%
    12:00 +36°C° 0 mm 1 m/s 757 mmHg 24%
    13:00 +36°C° 0 mm 2 m/s 757 mmHg 26%
    14:00 +35°C° 0 mm 4 m/s 756 mmHg 28%
    15:00 +34°C° 0 mm 5 m/s 756 mmHg 30%
    16:00 +33°C° 0 mm 5 m/s 756 mmHg 35%
    17:00 +30°C° 0 mm 4 m/s 756 mmHg 40%
    18:00 +28°C° 0 mm 4 m/s 756 mmHg 45%
    19:00 +26°C° 0 mm 3 m/s 756 mmHg 54%
    20:00 +24°C° 0 mm 3 m/s 756 mmHg 63%
    21:00 +21°C° 0 mm 2 m/s 757 mmHg 72%
    22:00 +20°C° 0 mm 2 m/s 756 mmHg 74%
    23:00 +20°C° 0 mm 2 m/s 756 mmHg 75%

    28 August, Miercuri

    Timp Temperatura Precipitaţii Vânt Presiune Umiditate
    00:00 +19°C° 0 mm 2 m/s 756 mmHg 76%
    01:00 +19°C° 0 mm 2 m/s 756 mmHg 80%
    02:00 +19°C° 0 mm 2 m/s 756 mmHg 83%
    03:00 +18°C° 0 mm 2 m/s 756 mmHg 86%
    04:00 +19°C° 0 mm 2 m/s 756 mmHg 86%
    05:00 +19°C° 0 mm 2 m/s 756 mmHg 86%
    06:00 +19°C° 0 mm 2 m/s 756 mmHg 85%
    07:00 +21°C° 0 mm 2 m/s 756 mmHg 78%
    08:00 +22°C° 0 mm 3 m/s 757 mmHg 70%
    09:00 +25°C° 0 mm 3 m/s 757 mmHg 62%
    10:00 +25°C° 0 mm 4 m/s 757 mmHg 62%
    11:00 +25°C° 0 mm 4 m/s 757 mmHg 63%
    12:00 +25°C° 0 mm 5 m/s 757 mmHg 63%
    13:00 +25°C° 0 mm 5 m/s 756 mmHg 62%
    14:00 +26°C° 0 mm 5 m/s 756 mmHg 61%
    15:00 +26°C° 0 mm 5 m/s 756 mmHg 60%
    16:00 +25°C° 0 mm 5 m/s 756 mmHg 64%
    17:00 +22°C° 0 mm 5 m/s 756 mmHg 67%
    18:00 +21°C° 0 mm 5 m/s 757 mmHg 71%
    19:00 +20°C° 0 mm 5 m/s 757 mmHg 74%
    20:00 +19°C° 0 mm 4 m/s 758 mmHg 78%
    21:00 +17°C° 0 mm 4 m/s 758 mmHg 82%
    22:00 +17°C° 0 mm 3 m/s 758 mmHg 86%
    23:00 +16°C° 0 mm 3 m/s 759 mmHg 90%

    29 August, Joi

    Timp Temperatura Precipitaţii Vânt Presiune Umiditate
    00:00 +16°C° 0 mm 3 m/s 759 mmHg 94%
    01:00 +14°C° 0 mm 3 m/s 759 mmHg 93%
    02:00 +14°C° 0 mm 3 m/s 760 mmHg 92%
    03:00 +13°C° 0 mm 3 m/s 760 mmHg 91%
    04:00 +13°C° 0 mm 3 m/s 760 mmHg 89%
    05:00 +13°C° 0 mm 3 m/s 761 mmHg 88%
    06:00 +13°C° 0 mm 3 m/s 761 mmHg 86%
    07:00 +14°C° 0 mm 3 m/s 762 mmHg 76%
    08:00 +17°C° 0 mm 3 m/s 762 mmHg 66%
    09:00 +19°C° 0 mm 3 m/s 762 mmHg 56%
    10:00 +20°C° 0 mm 3 m/s 762 mmHg 48%
    11:00 +22°C° 0 mm 3 m/s 762 mmHg 40%
    12:00 +24°C° 0 mm 3 m/s 762 mmHg 33%
    13:00 +25°C° 0 mm 3 m/s 762 mmHg 32%
    14:00 +25°C° 0 mm 3 m/s 762 mmHg 32%
    15:00 +26°C° 0 mm 4 m/s 762 mmHg 32%
    16:00 +25°C° 0 mm 4 m/s 762 mmHg 37%
    17:00 +23°C° 0 mm 4 m/s 762 mmHg 42%
    18:00 +22°C° 0 mm 5 m/s 762 mmHg 47%
    19:00 +20°C° 0 mm 4 m/s 763 mmHg 53%
    20:00 +18°C° 0 mm 4 m/s 763 mmHg 60%
    21:00 +16°C° 0 mm 3 m/s 764 mmHg 67%
    22:00 +14°C° 0 mm 3 m/s 764 mmHg 69%
    23:00 +13°C° 0 mm 3 m/s 764 mmHg 72%
    Arată mai mult